Regional Weather Roundup
Issued by NWS

Home | Current Version | Previous Version | Text Only | Print | Product List | Glossary On
Versions: 1 2 3 4 5 6 7 8 9 10 11 12 13 14 15 16 17 18 19 20 21 22 23 24 25 26 27 28 29 30 31 32 33 34 35 36 37 38 39 40 41 42 43 44 45 46 47
000
ASPQ40 PGUM 290414
RWRPQ
WEATHER ROUNDUP FOR THE MARIANAS AND MICRONESIA
NATIONAL WEATHER SERVICE TIYAN GU
200 PM CHST WED JUL 29 2015

GUZ001>004-290500-
MARIANA ISLANDS-

CITY           SKY/WX    TMP DP  RH WIND       PRES   REMARKS
GUAM AIRPORT   CLOUDY    84  73  70 S3        29.80S HX  91
ANDERSEN AFB   NOT AVBL
ROTA AIRPORT   NOT AVBL
TINIAN AP      NOT AVBL
SAIPAN AP      NOT AVBL

$$

PMZ161-290500-
REPUBLIC OF PALAU-

CITY           SKY/WX    TMP DP  RH WIND       PRES   REMARKS
KOROR AP       CLOUDY    79  77  94 NW5       29.80F
KOROR WSO      LGT RAIN  81  77  89 NE5       29.82F

$$

PMZ171>174-290500-
FEDERATED STATES OF MICRONESIA-

CITY           SKY/WX    TMP DP  RH WIND       PRES   REMARKS
YAP AIRPORT    LGT RAIN  79  77  94 VRB6      29.79F
CHUUK AP       CLOUDY    86  77  74 W13       29.77F HX  97
POHNPEI AP     CLOUDY    84  77  79 SW6       29.74F HX  94
POHNPEI WSO    CLOUDY    82  77  83 SW3       29.79S HX  91
KOSRAE AP      NOT AVBL

$$

PMZ181-290500-
REPUBLIC OF THE MARSHALL ISLANDS-

CITY           SKY/WX    TMP DP  RH WIND       PRES   REMARKS
KWAJALEIN AP   SUNNY     88  73  62 S3        29.70F HX  96
MAJURO AP      PTSUNNY   86  77  74 SE6       29.67S HX  97
MAJURO WSO     CLOUDY    86  79  79 SE6       29.67F HX  99

$$




USA.gov is the U.S. government's official web portal to all federal, state and local government web resources and services.